Location: Dallas(GA)
(33.9240°N, 84.8410°W)
Time: 22:22:56
(UTC-04:00)

N. Korean satellite - Pass Details

Date: 30 September 2020
Orbit: 453 x 505 km, 97.2° (Epoch: 25 October)

Event Time Altitude Azimuth Distance (km) Brightness Sun altitude
Rises 07:01:02 0° 13° (NNE) 2,557 10.4 -7.6°
Reaches altitude 10° 07:03:08 10° 16° (NNE) 1,663 9.5 -7.1°
Maximum altitude 07:06:42 72° 101° (E) 502 6.8 -6.4°
Drops below altitude 10° 07:10:10 10° 186° (S) 1,621 9.2 -5.7°
Sets 07:12:12 0° 188° (S) 2,484 10.1 -5.2°
